When you browse on this site, cookies collect data to enhance your experience and personalize the content and advertising you see.
Visit our Privacy Policy to learn more. By continuing to use the site, you agree to this use of cookies and data.
  • In Netherlands
  • List of Countries
  • For 7 days
  • Water Temperature
  • Weather Map
  • Weather Widgets
  • user-avatar
    Login

    Hourly Weather Luanda

    Today, 29 February, Saturday

    Time Temperature Precipitation Wind Pressure Humidity
    00:00 +27°C° 0 mm 3 mps 753 mmHg 81%
    01:00 +27°C° 0 mm 3 mps 753 mmHg 82%
    02:00 +27°C° 0 mm 3 mps 752 mmHg 83%
    03:00 +27°C° 0 mm 3 mps 752 mmHg 84%
    04:00 +26°C° 0 mm 3 mps 752 mmHg 85%
    05:00 +26°C° 0 mm 3 mps 752 mmHg 84%
    06:00 +27°C° 0 mm 2 mps 753 mmHg 83%
    07:00 +27°C° 0 mm 2 mps 753 mmHg 82%
    08:00 +28°C° 0 mm 2 mps 753 mmHg 77%
    09:00 +29°C° 0 mm 2 mps 753 mmHg 72%
    10:00 +30°C° 0 mm 1 mps 754 mmHg 67%
    11:00 +31°C° 0 mm 1 mps 753 mmHg 63%
    12:00 +32°C° 0 mm 1 mps 753 mmHg 59%
    13:00 +33°C° 0 mm 1 mps 753 mmHg 55%
    14:00 +32°C° 0.1 mm 2 mps 753 mmHg 60%
    15:00 +31°C° 0.1 mm 2 mps 752 mmHg 65%
    16:00 +30°C° 0.1 mm 3 mps 752 mmHg 70%
    17:00 +29°C° 0.1 mm 3 mps 753 mmHg 73%
    18:00 +29°C° 0.1 mm 3 mps 753 mmHg 75%
    19:00 +29°C° 0.1 mm 3 mps 754 mmHg 77%
    20:00 +28°C° 0.6 mm 3 mps 754 mmHg 78%
    21:00 +28°C° 0.6 mm 3 mps 755 mmHg 80%
    22:00 +28°C° 0.6 mm 2 mps 755 mmHg 81%
    23:00 +28°C° 1 mm 3 mps 755 mmHg 83%

    Tomorrow, 1 March, Sunday

    Time Temperature Precipitation Wind Pressure Humidity
    00:00 +27°C° 1 mm 4 mps 755 mmHg 85%
    01:00 +27°C° 1 mm 4 mps 754 mmHg 87%
    02:00 +27°C° 0.1 mm 4 mps 754 mmHg 87%
    03:00 +27°C° 0.1 mm 5 mps 754 mmHg 87%
    04:00 +27°C° 0.1 mm 5 mps 753 mmHg 88%
    05:00 +27°C° 0 mm 5 mps 754 mmHg 87%
    06:00 +27°C° 0 mm 4 mps 754 mmHg 87%
    07:00 +27°C° 0 mm 4 mps 755 mmHg 87%
    08:00 +27°C° 0.1 mm 4 mps 755 mmHg 85%
    09:00 +28°C° 0.1 mm 4 mps 755 mmHg 83%
    10:00 +28°C° 0.1 mm 4 mps 756 mmHg 81%
    11:00 +29°C° 0 mm 4 mps 755 mmHg 78%
    12:00 +29°C° 0 mm 4 mps 755 mmHg 76%
    13:00 +30°C° 0 mm 4 mps 754 mmHg 73%
    14:00 +30°C° 0 mm 4 mps 753 mmHg 73%
    15:00 +30°C° 0 mm 4 mps 753 mmHg 72%
    16:00 +30°C° 0 mm 4 mps 752 mmHg 72%
    17:00 +29°C° 0 mm 4 mps 752 mmHg 74%
    18:00 +29°C° 0 mm 4 mps 753 mmHg 76%
    19:00 +28°C° 0 mm 4 mps 753 mmHg 79%
    20:00 +28°C° 0 mm 4 mps 753 mmHg 80%
    21:00 +27°C° 0 mm 4 mps 754 mmHg 81%
    22:00 +27°C° 0 mm 4 mps 754 mmHg 82%
    23:00 +27°C° 0 mm 4 mps 754 mmHg 84%

    Day after tomorrow, 2 March, Monday

    Time Temperature Precipitation Wind Pressure Humidity
    00:00 +26°C° 0 mm 4 mps 753 mmHg 85%
    01:00 +26°C° 0 mm 4 mps 753 mmHg 87%
    02:00 +26°C° 0 mm 4 mps 752 mmHg 88%
    03:00 +26°C° 0 mm 5 mps 752 mmHg 89%
    04:00 +25°C° 0 mm 5 mps 752 mmHg 90%
    05:00 +26°C° 0 mm 5 mps 752 mmHg 90%
    06:00 +26°C° 0 mm 5 mps 753 mmHg 90%
    07:00 +26°C° 0 mm 4 mps 753 mmHg 90%
    08:00 +29°C° 0 mm 4 mps 753 mmHg 77%
    09:00 +31°C° 0 mm 3 mps 754 mmHg 65%
    10:00 +34°C° 0 mm 3 mps 754 mmHg 53%
    11:00 +35°C° 0 mm 3 mps 753 mmHg 48%
    12:00 +37°C° 0 mm 4 mps 753 mmHg 43%
    13:00 +39°C° 0 mm 5 mps 752 mmHg 38%
    14:00 +37°C° 0 mm 5 mps 752 mmHg 41%
    15:00 +36°C° 0 mm 5 mps 751 mmHg 45%
    16:00 +35°C° 0 mm 6 mps 751 mmHg 49%
    17:00 +34°C° 0 mm 5 mps 751 mmHg 56%
    18:00 +32°C° 0 mm 5 mps 752 mmHg 63%
    19:00 +29°C° 0 mm 5 mps 752 mmHg 70%
    20:00 +29°C° 0 mm 5 mps 752 mmHg 73%
    21:00 +29°C° 0 mm 4 mps 753 mmHg 76%
    22:00 +28°C° 0 mm 4 mps 753 mmHg 79%
    23:00 +28°C° 0 mm 3 mps 753 mmHg 82%

    3 March, Tuesday

    Time Temperature Precipitation Wind Pressure Humidity
    00:00 +27°C° 0 mm 3 mps 753 mmHg 84%
    01:00 +27°C° 0 mm 3 mps 753 mmHg 86%
    02:00 +26°C° 0 mm 2 mps 753 mmHg 88%
    03:00 +26°C° 0 mm 2 mps 753 mmHg 89%
    04:00 +26°C° 0 mm 1 mps 753 mmHg 91%
    05:00 +26°C° 0 mm 2 mps 753 mmHg 89%
    06:00 +26°C° 0 mm 2 mps 754 mmHg 88%
    07:00 +26°C° 0 mm 2 mps 754 mmHg 87%
    08:00 +29°C° 0 mm 1 mps 754 mmHg 76%
    09:00 +31°C° 0 mm 1 mps 754 mmHg 65%
    10:00 +33°C° 0 mm 1 mps 754 mmHg 54%
    11:00 +35°C° 0 mm 2 mps 754 mmHg 49%
    12:00 +37°C° 0 mm 3 mps 753 mmHg 45%
    13:00 +38°C° 0 mm 4 mps 752 mmHg 41%
    14:00 +37°C° 0 mm 4 mps 752 mmHg 45%
    15:00 +36°C° 0 mm 5 mps 751 mmHg 50%
    16:00 +34°C° 0 mm 5 mps 751 mmHg 55%
    17:00 +33°C° 0 mm 5 mps 751 mmHg 60%
    18:00 +32°C° 0 mm 5 mps 751 mmHg 65%
    19:00 +29°C° 0 mm 5 mps 751 mmHg 70%
    20:00 +29°C° 0 mm 5 mps 752 mmHg 73%
    21:00 +28°C° 0 mm 4 mps 753 mmHg 75%
    22:00 +28°C° 0 mm 4 mps 754 mmHg 78%
    23:00 +27°C° 0 mm 3 mps 754 mmHg 80%

    4 March, Wednesday

    Time Temperature Precipitation Wind Pressure Humidity
    00:00 +27°C° 0 mm 3 mps 754 mmHg 82%
    01:00 +26°C° 0 mm 3 mps 753 mmHg 84%
    02:00 +26°C° 0 mm 3 mps 753 mmHg 86%
    03:00 +26°C° 0 mm 3 mps 753 mmHg 89%
    04:00 +25°C° 0 mm 3 mps 753 mmHg 91%
    05:00 +26°C° 0 mm 3 mps 753 mmHg 90%
    06:00 +26°C° 0 mm 3 mps 754 mmHg 89%
    07:00 +26°C° 0 mm 2 mps 754 mmHg 88%
    08:00 +28°C° 0 mm 2 mps 754 mmHg 77%
    09:00 +30°C° 0 mm 2 mps 754 mmHg 66%
    10:00 +32°C° 0 mm 2 mps 754 mmHg 55%
    11:00 +34°C° 0 mm 3 mps 754 mmHg 50%
    12:00 +36°C° 0 mm 3 mps 753 mmHg 44%
    13:00 +37°C° 0 mm 4 mps 753 mmHg 39%
    14:00 +36°C° 0 mm 5 mps 752 mmHg 43%
    15:00 +35°C° 0 mm 6 mps 752 mmHg 48%
    16:00 +34°C° 0 mm 6 mps 751 mmHg 53%
    17:00 +33°C° 0 mm 6 mps 751 mmHg 59%
    18:00 +30°C° 0 mm 6 mps 752 mmHg 64%
    19:00 +28°C° 0 mm 6 mps 752 mmHg 70%
    20:00 +28°C° 0 mm 5 mps 752 mmHg 73%
    21:00 +27°C° 0 mm 5 mps 753 mmHg 76%
    22:00 +27°C° 0 mm 4 mps 754 mmHg 79%
    23:00 +26°C° 0 mm 4 mps 753 mmHg 81%

    5 March, Thursday

    Time Temperature Precipitation Wind Pressure Humidity
    00:00 +26°C° 0 mm 3 mps 753 mmHg 83%
    01:00 +26°C° 0 mm 3 mps 753 mmHg 85%
    02:00 +25°C° 0 mm 3 mps 753 mmHg 87%
    03:00 +25°C° 0 mm 3 mps 752 mmHg 88%
    04:00 +25°C° 0 mm 3 mps 752 mmHg 89%
    05:00 +25°C° 0 mm 3 mps 752 mmHg 89%
    06:00 +25°C° 0 mm 3 mps 753 mmHg 89%
    07:00 +25°C° 0 mm 3 mps 753 mmHg 88%
    08:00 +27°C° 0 mm 2 mps 753 mmHg 77%
    09:00 +29°C° 0 mm 2 mps 754 mmHg 66%
    10:00 +32°C° 0 mm 1 mps 754 mmHg 54%
    11:00 +34°C° 0 mm 2 mps 753 mmHg 49%
    12:00 +36°C° 0 mm 3 mps 752 mmHg 43%
    13:00 +37°C° 0 mm 4 mps 752 mmHg 38%
    14:00 +36°C° 0 mm 5 mps 751 mmHg 42%
    15:00 +35°C° 0 mm 5 mps 750 mmHg 47%
    16:00 +34°C° 0 mm 6 mps 750 mmHg 51%
    17:00 +33°C° 0 mm 6 mps 750 mmHg 57%
    18:00 +30°C° 0 mm 6 mps 750 mmHg 63%
    19:00 +28°C° 0 mm 5 mps 751 mmHg 69%
    20:00 +28°C° 0 mm 5 mps 751 mmHg 72%
    21:00 +27°C° 0 mm 5 mps 752 mmHg 75%
    22:00 +27°C° 0 mm 4 mps 753 mmHg 78%
    23:00 +26°C° 0 mm 4 mps 753 mmHg 81%
    Show more